Location: Newark
(54.2500°N, 9.1833°E)
Time: 14:35:36
(UTC+00:00)

A-11 Canister half - Pass Details

Date: 14 December 2019
Orbit: 1517 x 1683 km, 47.2° (Epoch: 21 January)

Event Time Altitude Azimuth Distance (km) Brightness Sun altitude
Rises 16:47:17 0° 284° (WNW) 4,857 12.6 -14.4°
Reaches altitude 10° 16:50:57 10° 274° (W) 3,891 12.2 -14.9°
Maximum altitude 16:58:52 28° 221° (SW) 2,760 11.0 -16.0°
Drops below altitude 10° 17:06:53 10° 168° (SSE) 3,938 11.2 -17.1°
Sets 17:10:39 0° 157° (SSE) 4,926 11.6 -17.6°
